Weather History for Las Cruces, NM

Change the Weather History Date:

Saturday, March 2, 2013

  Actual Average Record
Temperature  
Mean Temperature 50 °F -  
Max Temperature 69 °F 58 °F 78 °F (2011)
Min Temperature 31 °F 35 °F 23 °F (2007)
Degree Days  
Heating Degree Days 15    
Moisture  
Dew Point 13 °F    
Average Humidity 23    
Maximum Humidity 35    
Minimum Humidity 13    
Precipitation  
Precipitation 0.00 in - - ()
Sea Level Pressure  
Sea Level Pressure 30.32 in    
Wind  
Wind Speed 4 mph (SW)    
Max Wind Speed 12 mph    
Max Gust Speed -    
Visibility 10 miles    
Events      
Averages and records for this station are not official NWS values.
T = Trace of Precipitation, MM = Missing Value Source: NWS Daily Summary

Daily Weather History Graph

Daily Weather History Graph

Search for Another Location

Airport:

Trip Planner

Search our weather history database for the weather conditions in past years. The results will help you decide how hot, cold, wet, or windy it might be!

Date:

Astronomy

Mar. 02, 2013 Rise Set
Actual Time 6:33 AM MST 6:06 PM MST
Civil Twilight 6:09 AM MST 6:30 PM MST
Nautical Twilight 5:40 AM MST 6:59 PM MST
Astronomical Twilight 5:12 AM MST 7:27 PM MST
Moon 11:26 PM MST (3/2) 9:24 AM MST (3/2)
Length of Visible Light 12h 21m
Length of Day
11h 32m
Waning Gibbous, 73% of the Moon is Illuminated
Mar 2
Waning Gibbous
Mar 4
Last Quarter
Mar 11
New
Mar 19
First Quarter
Mar 27
Full

Hourly Weather History & Observations

Time (MST) Temp. Windchill Dew Point Humidity Pressure Visibility Wind Dir Wind Speed Gust Speed Precip Events Conditions
12:15 AM 38.5 °F 34.1 °F 9.1 °F 30% 30.34 in 10.0 mi East 5.8 mph - N/A   Clear
12:35 AM 41.5 °F - 10.6 °F 28% 30.35 in 10.0 mi Calm Calm - N/A   Clear
12:55 AM 39.9 °F 36.7 °F 10.2 °F 30% 30.36 in 10.0 mi East 4.6 mph - N/A   Clear
1:15 AM 35.2 °F - 7.9 °F 32% 30.36 in 10.0 mi Calm Calm - N/A   Clear
1:35 AM 33.8 °F - 7.7 °F 34% 30.36 in 10.0 mi Calm Calm - N/A   Clear
1:55 AM 32.7 °F 28.3 °F 7.0 °F 34% 30.36 in 10.0 mi ENE 4.6 mph - N/A   Clear
2:15 AM 36.7 °F - 8.2 °F 31% 30.36 in 10.0 mi Calm Calm - N/A   Clear
2:55 AM 34.0 °F - 6.8 °F 32% 30.34 in 10.0 mi Calm Calm - N/A   Clear
3:15 AM 32.2 °F 28.9 °F 6.4 °F 34% 30.34 in 10.0 mi North 3.5 mph - N/A   Clear
3:35 AM 32.7 °F 29.6 °F 7.2 °F 34% 30.34 in 10.0 mi NE 3.5 mph - N/A   Clear
3:55 AM 32.0 °F - 6.4 °F 34% 30.34 in 10.0 mi Calm Calm - N/A   Clear
4:15 AM 31.1 °F - 5.9 °F 35% 30.35 in 10.0 mi Calm Calm - N/A   Clear
5:15 AM 32.0 °F 27.5 °F 6.8 °F 35% 30.37 in 10.0 mi North 4.6 mph - N/A   Clear
5:35 AM 33.3 °F 26.4 °F 7.3 °F 34% 30.37 in 10.0 mi North 8.1 mph - N/A   Clear
5:55 AM 36.0 °F 28.5 °F 9.9 °F 34% 30.37 in 10.0 mi NNW 10.4 mph - N/A   Clear
6:15 AM 39.9 °F 33.4 °F 14.4 °F 35% 30.37 in 10.0 mi NNW 10.4 mph - N/A   Clear
6:35 AM 41.2 °F 34.5 °F 14.7 °F 34% 30.37 in 10.0 mi NNW 11.5 mph - N/A   Clear
6:55 AM 40.6 °F 37.5 °F 14.7 °F 35% 30.38 in 10.0 mi East 4.6 mph - N/A   Clear
7:15 AM 36.1 °F 33.5 °F 9.9 °F 34% 30.40 in 10.0 mi SE 3.5 mph - N/A   Clear
7:35 AM 39.4 °F - 11.3 °F 32% 30.40 in 10.0 mi Calm Calm - N/A   Clear
7:55 AM 41.9 °F - 12.9 °F 31% 30.41 in 10.0 mi Calm Calm - N/A   Clear
8:15 AM 44.8 °F - 13.3 °F 28% 30.41 in 10.0 mi Calm Calm - N/A   Clear
8:35 AM 44.6 °F - 12.2 °F 27% 30.41 in 10.0 mi Calm Calm - N/A   Clear
8:55 AM 46.4 °F - 13.8 °F 27% 30.42 in 10.0 mi Calm Calm - N/A   Clear
9:15 AM 49.6 °F - 14.9 °F 25% 30.42 in 10.0 mi East 3.5 mph - N/A   Clear
9:35 AM 51.8 °F - 15.4 °F 24% 30.42 in 10.0 mi Calm Calm - N/A   Clear
9:55 AM 55.0 °F - 16.5 °F 22% 30.42 in 10.0 mi Calm Calm - N/A   Clear
10:15 AM 56.8 °F - 16.7 °F 21% 30.41 in 10.0 mi ENE 4.6 mph - N/A   Clear
10:35 AM 57.9 °F - 17.1 °F 20% 30.41 in 10.0 mi NE 5.8 mph - N/A   Clear
10:55 AM 58.8 °F - 17.8 °F 20% 30.41 in 10.0 mi East 3.5 mph - N/A   Clear
11:15 AM 60.4 °F - 17.4 °F 19% 30.40 in 10.0 mi NE 4.6 mph - N/A   Clear
11:35 AM 61.0 °F - 16.9 °F 18% 30.39 in 10.0 mi Calm Calm - N/A   Clear
11:55 AM 63.7 °F - 17.1 °F 17% 30.38 in 10.0 mi East 4.6 mph - N/A   Clear
12:15 PM 63.5 °F - 16.7 °F 16% 30.37 in 10.0 mi ESE 4.6 mph - N/A   Clear
12:35 PM 63.9 °F - 16.5 °F 16% 30.36 in 10.0 mi North 4.6 mph - N/A   Clear
12:55 PM 65.5 °F - 16.7 °F 15% 30.34 in 10.0 mi West 3.5 mph - N/A   Clear
1:15 PM 64.4 °F - 16.0 °F 15% 30.33 in 10.0 mi Calm Calm - N/A   Clear
1:35 PM 65.3 °F - 16.5 °F 15% 30.32 in 10.0 mi South 3.5 mph - N/A   Clear
1:55 PM 66.2 °F - 16.5 °F 15% 30.31 in 10.0 mi SSW 3.5 mph - N/A   Clear
2:15 PM 66.9 °F - 16.5 °F 14% 30.30 in 10.0 mi NNW 4.6 mph - N/A   Clear
2:35 PM 67.3 °F - 16.2 °F 14% 30.30 in 10.0 mi NNW 4.6 mph - N/A   Clear
2:55 PM 68.2 °F - 15.8 °F 13% 30.29 in 10.0 mi WSW 5.8 mph - N/A   Clear
3:15 PM 67.8 °F - 16.5 °F 14% 30.28 in 10.0 mi SE 3.5 mph - N/A   Clear
3:35 PM 68.7 °F - 16.5 °F 14% 30.28 in 10.0 mi Calm Calm - N/A   Clear
3:55 PM 68.9 °F - 16.3 °F 13% 30.27 in 10.0 mi WSW 9.2 mph - N/A   Clear
4:15 PM 69.4 °F - 15.8 °F 13% 30.27 in 10.0 mi WSW 8.1 mph - N/A   Clear
4:35 PM 68.4 °F - 15.8 °F 13% 30.25 in 10.0 mi SW 4.6 mph - N/A   Clear
4:55 PM 68.9 °F - 15.8 °F 13% 30.25 in 10.0 mi South 6.9 mph - N/A   Clear
5:15 PM 68.0 °F - 15.1 °F 13% 30.25 in 10.0 mi Calm Calm - N/A   Clear
5:35 PM 67.8 °F - 14.0 °F 13% 30.25 in 10.0 mi WSW 9.2 mph - N/A   Clear
5:55 PM 65.7 °F - 13.1 °F 13% 30.25 in 10.0 mi West 6.9 mph - N/A   Clear
6:15 PM 61.9 °F - 12.4 °F 14% 30.25 in 10.0 mi WSW 5.8 mph - N/A   Clear
6:35 PM 59.4 °F - 11.8 °F 15% 30.25 in 10.0 mi West 6.9 mph - N/A   Clear
6:55 PM 56.8 °F - 10.9 °F 16% 30.25 in 10.0 mi WSW 6.9 mph - N/A   Clear
7:15 PM 55.0 °F - 11.1 °F 17% 30.25 in 10.0 mi WSW 6.9 mph - N/A   Clear
7:35 PM 54.5 °F - 12.0 °F 19% 30.25 in 10.0 mi SSW 4.6 mph - N/A   Clear
7:55 PM 54.1 °F - 12.4 °F 19% 30.24 in 10.0 mi SW 6.9 mph - N/A   Clear
8:15 PM 53.1 °F - 12.4 °F 20% 30.25 in 10.0 mi SSW 5.8 mph - N/A   Clear
8:35 PM 53.6 °F - 12.6 °F 20% 30.25 in 10.0 mi SSW 6.9 mph - N/A   Clear
8:55 PM 53.2 °F - 13.1 °F 20% 30.25 in 10.0 mi SSW 8.1 mph - N/A   Clear
9:15 PM 52.7 °F - 13.1 °F 21% 30.25 in 10.0 mi SSW 8.1 mph - N/A   Clear
9:35 PM 51.3 °F - 13.1 °F 22% 30.25 in 10.0 mi SSW 6.9 mph - N/A   Clear
9:55 PM 49.6 °F - 12.6 °F 23% 30.25 in 10.0 mi SW 5.8 mph - N/A   Clear
10:15 PM 50.9 °F - 13.1 °F 22% 30.24 in 10.0 mi SSW 6.9 mph - N/A   Clear
10:35 PM 50.2 °F - 13.1 °F 23% 30.24 in 10.0 mi SW 6.9 mph - N/A   Clear
10:55 PM 46.4 °F 44.3 °F 11.8 °F 25% 30.23 in 10.0 mi WSW 4.6 mph - N/A   Clear
11:15 PM 43.2 °F 40.5 °F 11.1 °F 27% 30.23 in 10.0 mi WSW 4.6 mph - N/A   Clear
11:35 PM 43.0 °F 39.5 °F 10.8 °F 27% 30.23 in 10.0 mi WSW 5.8 mph - N/A   Clear
11:55 PM 43.2 °F 39.7 °F 11.5 °F 28% 30.23 in 10.0 mi WSW 5.8 mph - N/A   Clear